• In Germany
  • List of Countries
  • For 7 days
  • Water Temperature
  • Satellite Maps
  • Weather Map
  • Weather Widgets
  • user-avatar
    Login

    Hourly Weather Kandahar

    Today, 20 November, Monday

    Time Temperature Precipitation Wind Pressure Humidity
    00:00 +11°C° 0 mm 1 mps 678 mmHg 34%
    01:00 +10°C° 0 mm 1 mps 677 mmHg 34%
    02:00 +10°C° 0 mm 1 mps 677 mmHg 35%
    03:00 +9°C° 0 mm 1 mps 677 mmHg 36%
    04:00 +8°C° 0 mm 1 mps 677 mmHg 37%
    05:00 +8°C° 0 mm 0 mps 677 mmHg 37%
    06:00 +8°C° 0 mm 0 mps 677 mmHg 36%
    07:00 +8°C° 0 mm 0 mps 678 mmHg 35%
    08:00 +10°C° 0 mm 0 mps 678 mmHg 31%
    09:00 +12°C° 0 mm 0 mps 679 mmHg 27%
    10:00 +14°C° 0 mm 0 mps 679 mmHg 23%
    11:00 +16°C° 0 mm 1 mps 679 mmHg 22%
    12:00 +18°C° 0 mm 1 mps 678 mmHg 20%
    13:00 +19°C° 0 mm 1 mps 678 mmHg 19%
    14:00 +18°C° 0 mm 1 mps 678 mmHg 19%
    15:00 +18°C° 0 mm 1 mps 678 mmHg 19%
    16:00 +17°C° 0 mm 2 mps 677 mmHg 19%
    17:00 +16°C° 0 mm 2 mps 677 mmHg 22%
    18:00 +14°C° 0 mm 1 mps 677 mmHg 24%
    19:00 +13°C° 0 mm 1 mps 677 mmHg 27%
    20:00 +12°C° 0 mm 1 mps 677 mmHg 28%
    21:00 +12°C° 0 mm 1 mps 677 mmHg 30%
    22:00 +10°C° 0 mm 0 mps 677 mmHg 31%
    23:00 +10°C° 0 mm 0 mps 676 mmHg 32%

    Tomorrow, 21 November, Tuesday

    Time Temperature Precipitation Wind Pressure Humidity
    00:00 +9°C° 0 mm 0 mps 676 mmHg 33%
    01:00 +9°C° 0 mm 0 mps 676 mmHg 33%
    02:00 +8°C° 0 mm 0 mps 676 mmHg 34%
    03:00 +8°C° 0 mm 0 mps 675 mmHg 35%
    04:00 +7°C° 0 mm 0 mps 675 mmHg 36%
    05:00 +8°C° 0 mm 0 mps 675 mmHg 35%
    06:00 +8°C° 0 mm 0 mps 676 mmHg 34%
    07:00 +8°C° 0 mm 0 mps 676 mmHg 33%
    08:00 +10°C° 0 mm 0 mps 677 mmHg 28%
    09:00 +13°C° 0 mm 0 mps 677 mmHg 24%
    10:00 +15°C° 0 mm 0 mps 678 mmHg 20%
    11:00 +16°C° 0 mm 0 mps 678 mmHg 18%
    12:00 +18°C° 0 mm 1 mps 677 mmHg 17%
    13:00 +19°C° 0 mm 1 mps 677 mmHg 15%
    14:00 +19°C° 0 mm 1 mps 676 mmHg 15%
    15:00 +19°C° 0 mm 1 mps 676 mmHg 16%
    16:00 +18°C° 0 mm 1 mps 676 mmHg 16%
    17:00 +16°C° 0 mm 1 mps 676 mmHg 19%
    18:00 +14°C° 0 mm 1 mps 676 mmHg 21%
    19:00 +12°C° 0 mm 1 mps 675 mmHg 24%
    20:00 +11°C° 0 mm 0 mps 675 mmHg 25%
    21:00 +10°C° 0 mm 0 mps 675 mmHg 26%
    22:00 +10°C° 0 mm 0 mps 675 mmHg 27%
    23:00 +9°C° 0 mm 0 mps 675 mmHg 27%

    Day after tomorrow, 22 November, Wednesday

    Time Temperature Precipitation Wind Pressure Humidity
    00:00 +10°C° 0 mm 1 mps 675 mmHg 27%
    01:00 +10°C° 0 mm 1 mps 674 mmHg 27%
    02:00 +10°C° 0 mm 1 mps 674 mmHg 27%
    03:00 +10°C° 0 mm 1 mps 674 mmHg 27%
    04:00 +9°C° 0 mm 1 mps 674 mmHg 27%
    05:00 +10°C° 0 mm 1 mps 674 mmHg 26%
    06:00 +9°C° 0 mm 2 mps 674 mmHg 25%
    07:00 +9°C° 0 mm 2 mps 675 mmHg 24%
    08:00 +12°C° 0 mm 2 mps 675 mmHg 20%
    09:00 +15°C° 0 mm 2 mps 676 mmHg 17%
    10:00 +17°C° 0 mm 2 mps 677 mmHg 13%
    11:00 +18°C° 0 mm 2 mps 676 mmHg 12%
    12:00 +19°C° 0 mm 2 mps 676 mmHg 10%
    13:00 +21°C° 0 mm 1 mps 675 mmHg 9%
    14:00 +20°C° 0 mm 1 mps 675 mmHg 9%
    15:00 +20°C° 0 mm 1 mps 675 mmHg 9%
    16:00 +19°C° 0 mm 1 mps 675 mmHg 10%
    17:00 +18°C° 0 mm 1 mps 675 mmHg 11%
    18:00 +16°C° 0 mm 1 mps 675 mmHg 11%
    19:00 +15°C° 0 mm 1 mps 675 mmHg 12%
    20:00 +14°C° 0 mm 1 mps 675 mmHg 12%
    21:00 +14°C° 0 mm 1 mps 674 mmHg 12%
    22:00 +14°C° 0 mm 1 mps 674 mmHg 12%
    23:00 +13°C° 0 mm 1 mps 674 mmHg 13%

    23 November, Thursday

    Time Temperature Precipitation Wind Pressure Humidity
    00:00 +13°C° 0 mm 1 mps 674 mmHg 13%
    01:00 +13°C° 0 mm 2 mps 673 mmHg 13%
    02:00 +13°C° 0 mm 2 mps 673 mmHg 12%
    03:00 +13°C° 0 mm 2 mps 673 mmHg 12%
    04:00 +13°C° 0 mm 2 mps 673 mmHg 12%
    05:00 +13°C° 0 mm 2 mps 673 mmHg 12%
    06:00 +14°C° 0 mm 2 mps 674 mmHg 12%
    07:00 +14°C° 0 mm 2 mps 674 mmHg 11%
    08:00 +16°C° 0 mm 2 mps 675 mmHg 11%
    09:00 +17°C° 0 mm 2 mps 676 mmHg 11%
    10:00 +19°C° 0 mm 2 mps 676 mmHg 11%
    11:00 +20°C° 0 mm 2 mps 676 mmHg 11%
    12:00 +21°C° 0 mm 1 mps 675 mmHg 12%
    13:00 +22°C° 0 mm 1 mps 675 mmHg 13%
    14:00 +22°C° 0 mm 1 mps 675 mmHg 13%
    15:00 +21°C° 0 mm 1 mps 674 mmHg 13%
    16:00 +20°C° 0 mm 2 mps 674 mmHg 14%
    17:00 +19°C° 0 mm 2 mps 674 mmHg 15%
    18:00 +18°C° 0 mm 2 mps 674 mmHg 16%
    19:00 +16°C° 0 mm 2 mps 674 mmHg 18%
    20:00 +16°C° 0 mm 2 mps 675 mmHg 18%
    21:00 +15°C° 0 mm 2 mps 675 mmHg 18%
    22:00 +15°C° 0 mm 2 mps 675 mmHg 18%
    23:00 +15°C° 0 mm 2 mps 674 mmHg 19%

    24 November, Friday

    Time Temperature Precipitation Wind Pressure Humidity
    00:00 +14°C° 0 mm 2 mps 674 mmHg 19%
    01:00 +14°C° 0 mm 2 mps 674 mmHg 19%
    02:00 +14°C° 0 mm 2 mps 674 mmHg 20%
    03:00 +13°C° 0 mm 2 mps 674 mmHg 20%
    04:00 +13°C° 0 mm 2 mps 674 mmHg 20%
    05:00 +13°C° 0 mm 2 mps 674 mmHg 20%
    06:00 +13°C° 0 mm 2 mps 674 mmHg 20%
    07:00 +14°C° 0 mm 2 mps 675 mmHg 19%
    08:00 +16°C° 0 mm 2 mps 675 mmHg 17%
    09:00 +18°C° 0 mm 2 mps 676 mmHg 14%
    10:00 +20°C° 0 mm 2 mps 677 mmHg 12%
    11:00 +21°C° 0 mm 2 mps 676 mmHg 12%
    12:00 +23°C° 0 mm 2 mps 676 mmHg 13%
    13:00 +23°C° 0 mm 2 mps 675 mmHg 13%
    14:00 +23°C° 0 mm 2 mps 675 mmHg 14%
    15:00 +22°C° 0 mm 1 mps 675 mmHg 15%
    16:00 +22°C° 0 mm 1 mps 674 mmHg 16%
    17:00 +21°C° 0 mm 1 mps 675 mmHg 17%
    18:00 +19°C° 0 mm 2 mps 675 mmHg 18%
    19:00 +18°C° 0 mm 2 mps 675 mmHg 18%
    20:00 +18°C° 0 mm 2 mps 675 mmHg 19%
    21:00 +17°C° 0 mm 2 mps 675 mmHg 19%
    22:00 +17°C° 0 mm 2 mps 675 mmHg 20%
    23:00 +17°C° 0 mm 2 mps 675 mmHg 20%

    25 November, Saturday

    Time Temperature Precipitation Wind Pressure Humidity
    00:00 +16°C° 0 mm 2 mps 674 mmHg 21%
    01:00 +16°C° 0 mm 2 mps 674 mmHg 21%
    02:00 +15°C° 0 mm 2 mps 674 mmHg 22%
    03:00 +15°C° 0 mm 1 mps 674 mmHg 23%
    04:00 +14°C° 0 mm 1 mps 674 mmHg 25%
    05:00 +14°C° 0 mm 1 mps 674 mmHg 25%
    06:00 +14°C° 0 mm 1 mps 675 mmHg 25%
    07:00 +14°C° 0 mm 1 mps 675 mmHg 25%
    08:00 +16°C° 0 mm 1 mps 676 mmHg 23%
    09:00 +19°C° 0 mm 1 mps 676 mmHg 21%
    10:00 +22°C° 0 mm 1 mps 677 mmHg 20%
    11:00 +22°C° 0 mm 1 mps 676 mmHg 20%
    12:00 +23°C° 0 mm 1 mps 676 mmHg 21%
    13:00 +23°C° 0 mm 1 mps 675 mmHg 22%
    14:00 +23°C° 0 mm 1 mps 675 mmHg 23%
    15:00 +23°C° 0 mm 1 mps 675 mmHg 23%
    16:00 +22°C° 0 mm 1 mps 675 mmHg 24%
    17:00 +21°C° 0 mm 1 mps 675 mmHg 26%
    18:00 +19°C° 0 mm 1 mps 675 mmHg 29%
    19:00 +18°C° 0 mm 1 mps 676 mmHg 31%
    20:00 +15°C° 0 mm 0 mps 676 mmHg 32%
    21:00 +15°C° 0 mm 0 mps 676 mmHg 34%
    22:00 +14°C° 0 mm 0 mps 676 mmHg 35%
    23:00 +14°C° 0 mm 0 mps 675 mmHg 36%
    Show more